Terminal Aerodrome Forecast
Issued by NWS

Home | Current Version | Previous Version | Text Only | Print | Product List | Glossary On
Versions: 1 2 3 4 5 6 7 8 9 10 11 12 13 14 15 16 17 18 19 20 21 22 23 24 25 26 27 28 29 30 31 32 33 34
438
FTAK31 PANC 242324
TAFAIL
TAF
PAIL 242324Z 2500/2524 25011KT P6SM BKN015 OVC025
     FM250900 27010KT P6SM VCSH OVC018=

USA.gov is the U.S. government's official web portal to all federal, state and local government web resources and services.